Regional Weather Roundup
Issued by NWS Lake Charles, LA

Home | Current Version | Previous Version | Text Only | Print | Product List | Glossary On
Versions: 1 2 3 4 5 6 7 8 9 10 11 12 13 14 15 16 17 18 19 20 21 22 23 24 25 26 27
000
ASUS44 KLCH 280210
RWRLCH
REGIONAL WEATHER ROUNDUP
NATIONAL WEATHER SERVICE LAKE CHARLES LA
900 PM CDT MON MAR 27 2017

Note: "fair" indicates few or no clouds below 12,000 feet with no
significant weather and/or obstructions to visibility.


ACROSS SOUTHEAST TEXAS

CITY           SKY/WX    TMP DP  RH WIND       PRES   REMARKS
BEAUMONT       CLOUDY    72  69  90 SE7       29.88R
BEAUMONT CITY  CLOUDY   N/A N/A N/A S8        29.89R
ORANGE         CLOUDY    73  71  93 S7        29.91R
JASPER           N/A     74  67  78 S7        29.90R
$$

ACROSS CENTRAL LOUISIANA

CITY           SKY/WX    TMP DP  RH WIND       PRES   REMARKS
LEESVILLE      CLEAR     71  67  87 S9        29.88R
FULLERTON      FAIR      72  65  78 VRB3      29.87R
ALEXANDRIA INT CLEAR     70  65  84 S7        29.88R
ESLER FIELD    CLEAR     72  65  78 S5        29.90R
DERIDDER       FAIR      71  68  90 S5        29.91R
OAKDALE        CLEAR     71  67  87 S3        29.90R
OPELOUSAS      FAIR      71  67  86 MISG      29.91S
$$

ACROSS SOUTHWEST AND SOUTH CENTRAL LOUISIANA

CITY           SKY/WX    TMP DP  RH WIND       PRES   REMARKS
SULPHUR        CLOUDY    73  71  95 S9        29.91R
LAKE CHARLES   CLOUDY    72  69  90 S6        29.90R FOG
CHENNAULT INT  CLOUDY    68  68 100 S6        29.90S
CAMERON PHI    CLOUDY    73  72  94 S9        29.89S
DEQUINCY       FAIR      69  67  92 S6        29.89S
JENNINGS       FAIR      71  68  92 S5        29.92R
LAFAYETTE      MOCLDY    75  70  84 S5        29.93R
NEW IBERIA     CLEAR     72  67  84 S7        29.94R
ABBEVILLE      FAIR      70  70 100 S5        29.94R
PATTERSON      CLOUDY    73  70  90 S5        29.96R
SALT POINT       N/A     71  69  93 SE3       29.93R
$$

SELECTED SITES ACROSS THE REGION

CITY           SKY/WX    TMP DP  RH WIND       PRES   REMARKS
HOUSTON BUSH   PTCLDY    76  66  71 S10       29.85R
HOUSTON HOBBY  CLEAR     73  69  87 S8        29.85R
GALVESTON      CLOUDY    75  72  90 SE8       29.88R
COLLEGE STAT   MOCLDY    77  68  73 SE7       29.83R
CONROE         CLOUDY    74  66  76 SE9       29.85R
HUNTSVILLE     PTCLDY    77  68  73 VRB3      29.84R
LUFKIN         CLOUDY    73  68  84 SE3       29.85R
SHREVEPORT     PTCLDY    69  65  86 CALM      29.85R
MONROE         MOCLDY    73  65  75 SW10      29.87R
NATCHEZ MS     NOT AVBL
BATON ROUGE    CLOUDY    73  65  75 S9        29.93R
N.O. INTL ARPT PTCLDY    73  68  84 S8        29.95S
SLIDELL        MOCLDY    74  68  81 S9        29.95R
$$

MARINE REPORTS

STATION/POSITION TIME  SKY/WX   TEMP    WIND        PRES    VSBY
                                AIR SEA DIR/SP/G
                 (UTC)          (F)     (DEG/KT/KT) (MB)    (MI)
BUOY 30 S HIGH I 0150            73 74  140/ 10/ 10 1011.6R
WVE H/P(F/S)=  3/ 7

SEA RIM ST PARK  0200            72     140/  8/ 11 1012.6R
PORT ARTHUR      0148                   160/  7/ 10   N/A
SABINE PASS N    0148                   150/  8/ 11   N/A
TEXAS POINT      NOT AVBL
CALCASIEU PASS   0148            73 75  180/  9/ 10   N/A
LK CHARLES BEACH 0148            73 71              1012.8R
MARSH ISLAND     0100            74                   N/A
FRESH WATER LOCK 0148            73 76  160/ 10/ 13 1013.1R
AMERADA PASS     0148            72 69  150/  5/  9 1013.7R
$$




USA.gov is the U.S. government's official web portal to all federal, state and local government web resources and services.